Regional Weather Roundup
Issued by NWS

Home | Current Version | Previous Version | Text Only | Print | Product List | Glossary On
Versions: 1 2 3 4 5 6 7 8 9 10 11 12 13 14 15 16 17 18 19 20 21 22 23 24 25 26 27 28 29 30 31 32 33 34 35 36 37 38 39 40 41 42 43 44 45 46 47 48 49 50
000
ASUS43 KDTX 252101
RWRMI
MICHIGAN HOURLY REGIONAL WEATHER ROUNDUP
NATIONAL WEATHER SERVICE DETROIT/PONTIAC MI
500 PM EDT SUN JUN 25 2017

NOTE: "FAIR" INDICATES FEW OR NO CLOUDS BELOW 12,000 FEET WITH NO
SIGNIFICANT WEATHER AND/OR OBSTRUCTION TO VISIBILITY.

MIZ047>049-052>055-059>063-066>070-074>076-081>083-252200-
SOUTHEAST LOWER MICHIGAN

CITY           SKY/WX    TMP DP  RH WIND       PRES   REMARKS
ADRIAN         CLOUDY    70  45  40 W12G22    30.05F
ALMA           RAIN      61  54  77 W16       30.02R
ANN ARBOR      PTSUNNY   71  48  43 SW18G24   30.02S
BAD AXE        PTSUNNY   65  51  59 W14G23    29.98S
CARO           MOSUNNY   66  54  65 SW14G21   29.99S
DETROIT CITY   CLOUDY    69  46  43 W13G21    30.01R
DETROIT        PTSUNNY   71  47  42 W14G23    30.03S
FLINT          CLOUDY    66  51  58 W16       30.02R
GROSSE ILE     PTSUNNY   70  47  44 W9G16     30.01S
HILLSDALE      MOSUNNY   68  43  40 W13G25    30.06S
HOWELL         CLOUDY    66  44  44 W15G23    30.03R

CITY           SKY/WX    TMP DP  RH WIND       PRES   REMARKS
JACKSON        PTSUNNY   70  47  43 W13G20    30.04S
LAMBERTVILLE   CLOUDY    71  46  41 W10       30.04S
LANSING        MOSUNNY   71  47  42 W20G32    30.03S
LAPEER         CLOUDY    66  47  51 W16G25    30.01S
MASON          PTSUNNY   67  48  50 W14       30.04S
MONROE         CLOUDY    71  49  45 W12       30.02F
MT. CLEMENS    PTSUNNY   67  53  61 W13       29.99F
PONTIAC        CLOUDY    63  54  72 W8        30.01S
PORT HOPE        N/A     67  53  61 W12       29.95S
PORT HURON     CLOUDY    66  50  55 W3        30.00F
TRI CITIES     CLOUDY    64  56  75 W13       29.99S
MIDLAND        CLOUDY    65  55  69 W9        29.99S
TROY           CLOUDY    68  45  43 W8        30.04R
SAGINAW HB     CLOUDY    64  50  59 SW10G22   29.99S
$$
MIZ043>046-050>051-056>058-064>065-071>073-077>080-252200-
SOUTHWEST LOWER MICHIGAN

CITY           SKY/WX    TMP DP  RH WIND       PRES   REMARKS
BATTLE CREEK   PTSUNNY   71  46  40 W17G24    30.07S
BENTON HARBOR  SUNNY     71  46  40 W12       30.08F
BIG RAPIDS     CLOUDY    63  48  59 W14G21    30.00F
COLDWATER      MOSUNNY   70  41  35 W15       30.07S
FREMONT        PTSUNNY   65  48  54 W10       30.03S
HOLLAND        SUNNY     70  50  49 W18G25    30.06S
GRAND RAPIDS   PTSUNNY   69  50  50 W22G29    30.04S
IONIA          CLOUDY    65  50  58 NW12      30.02S
KALAMAZOO      MOSUNNY   70  43  37 W14G24    30.08S
LUDINGTON      CLOUDY    64  53  68 SW8       30.02S
MARSHALL       MOSUNNY   68  45  42 W13G21    30.05F
MOUNT PLEASANT PTSUNNY   61  49  65 W8        30.00R
MUSKEGON       PTSUNNY   66  54  65 W9        30.05S
SOUTH HAVEN    SUNNY     69  51  52 W13       30.07F
$$
MIZ016>042-252200-
NORTHERN LOWER MICHIGAN

CITY           SKY/WX    TMP DP  RH WIND       PRES   REMARKS
ALPENA         CLOUDY    58  56  93 S8        29.97R
BEAVER ISLAND  SUNNY     64  53  69 W12       29.97R
BELLAIRE       MOSUNNY   63  49  59 W3        29.98S
CADILLAC       CLOUDY    60  52  74 W9        29.99S
CHARLEVOIX     MOSUNNY   62  53  73 W12       30.00F
FRANKFORT      MOSUNNY   63  52  67 W6        30.01S
GAYLORD        MOSUNNY   64  47  53 W9        29.96S
GRAYLING       CLOUDY    61  51  70 W9        29.98R
HARBOR SPRINGS MOSUNNY   61  55  79 W10G17    29.96R
HOUGHTON LAKE  CLOUDY    60  52  74 W14       29.98S
MANISTEE       CLOUDY    63  52  67 VRB6      30.01S
OSCODA         LGT RAIN  59  54  82 CALM      29.97R
PELLSTON       SUNNY     69  48  47 N7        29.95R
ROGERS CITY    MOSUNNY   63  51  67 CALM      29.97S
TRAVERSE CITY  PTSUNNY   65  53  65 VRB6      29.97S
$$
MIZ007>008-015-252200-
EASTERN UPPER MICHIGAN

CITY           SKY/WX    TMP DP  RH WIND       PRES   REMARKS
KINROSS        CLOUDY    63  52  67 NE8       29.96R
MACKINAC ISLAN CLOUDY    63  52  68 W12       29.95R
NEWBERRY       PTSUNNY   63  55  73 NW5       29.94S
S. S. MARIE    LGT RAIN  59  56  89 E5        29.96R FOG
MUNISING         N/A     56  49  77 VRB3      29.98S
$$
MIZ004>006-011>014-085-252200-
CENTRAL UPPER MICHIGAN

CITY           SKY/WX    TMP DP  RH WIND       PRES   REMARKS
MANISTIQUE     CLOUDY    66  52  61 W5        29.95S
ESCANABA       RAIN      57  55  93 NW5       29.98F
MENOMINEE      TSTM      63  52  67 VRB6      29.99R
SAWYER-GWINN   PTSUNNY   57  50  77 N6        30.00R
$$
MIZ001>003-009>011-084-252200-
WESTERN UPPER MICHIGAN

CITY           SKY/WX    TMP DP  RH WIND       PRES   REMARKS
IRON MOUNTAIN  CLOUDY    66  48  52 E10       29.95S
HOUGHTON       CLOUDY    62  51  67 NW10      29.98F
COPPER HARBOR    N/A     49  45  86 N6        30.00S
IRONWOOD       RAIN      52  50  93 NW14G20   30.04S
$$

ABBREVIATIONS USED IN REMARKS
   TC - TEMPERATURE IN CELSIUS
  WCI - WIND CHILL INDEX
   HX - HEAT INDEX
  VSB - VISIBILITY





USA.gov is the U.S. government's official web portal to all federal, state and local government web resources and services.